Home > Weather > Achern > Past weeks

Flag for Germany Past Weather in Achern, Baden-Württemberg, Germany — Yesterday and Last 2 Weeks

Now
72 °F

Passing clouds.


Feels Like: 72 °F
Forecast: 56 / 74 °F
Wind: 6 mph from Northwest

Location: Karlsruhe - Baden Wurttemberg

Current Time: Jul 31, 2016 at 3:42:52 AM

Latest Report: Jul 31, 2016 at 12:20 AM


Visibility: N/A

Pressure: 29.89 "Hg

Humidity: 78%

Dew Point: 64 °F

Location of AchernLocation

Past Weather in Achern — Graph

°F

Achern Temperature Yesterday

Maximum temperature yesterday: 84 °F (at 5:20 PM)
Minimum temperature yesterday: 63 °F (at 4:50 AM)
Average temperature yesterday: 75 °F

High & Low Weather Summary for the Past Weeks

 TemperatureHumidityPressure
High93 °F (Jul 20, 3:50 PM)100% (Jul 18, 4:50 AM)30.33 "Hg (Jul 18, 4:50 AM)
Low50 °F (Jul 16, 4:50 AM)28% (Jul 20, 6:50 PM)29.89 "Hg (Jul 20, 6:20 PM)
Average73 °F71%30.06 "Hg
* Reported Jul 16 4:50 AM — Jul 31 12:20 AM, Achern, Weather by CustomWeather, © 2016

Note: Actual official high and low records may vary slightly from our data, if they occured in-between our weather recording intervals... More about our weather records

Advertising

Achern Weather History for the Previous 24 Hours

Scroll right to see more
 ConditionsComfort  
Time TempWeatherWind HumidityBarometerVisibility
12:20 AM
Sun, Jul 31
72 °FPassing clouds.6 mph78%29.89 "HgN/A
11:50 PM
Sat, Jul 30
72 °FClear.3 mph83%29.89 "Hg10 mi
11:20 PM72 °FClear.2 mph83%29.89 "Hg10 mi
10:50 PM70 °FClear.10 mph83%29.89 "Hg10 mi
10:20 PM72 °FClear.2 mph78%29.89 "Hg10 mi
9:50 PM72 °FSunny.2 mph83%29.89 "Hg10 mi
9:20 PM73 °FSunny.3 mph74%29.89 "Hg10 mi
8:50 PM75 °FSunny.2 mph74%29.89 "Hg10 mi
8:20 PM79 °FSunny.2 mph65%29.89 "Hg10 mi
7:50 PM81 °FSunny.3 mph58%29.89 "Hg10 mi
7:20 PM81 °FPassing clouds.5 mph54%29.89 "HgN/A
6:50 PM81 °FPassing clouds.6 mph58%29.89 "HgN/A
6:20 PM81 °FSunny.5 mph51%29.89 "Hg10 mi
5:50 PM81 °FSunny.6 mph58%29.89 "Hg10 mi
5:20 PM84 °FPassing clouds.6 mph45%29.89 "HgN/A
4:50 PM82 °FPassing clouds.5 mph48%29.92 "HgN/A
4:20 PM82 °FSunny.3 mph51%29.92 "Hg10 mi
3:50 PM81 °FScattered clouds.6 mph51%29.92 "HgN/A
3:20 PM82 °FScattered clouds.6 mph51%29.92 "HgN/A
2:50 PM81 °FPartly sunny.3 mph54%29.92 "HgN/A
2:20 PM79 °FScattered clouds.5 mph58%29.95 "HgN/A
1:50 PM81 °FScattered clouds.7 mph58%29.95 "HgN/A
1:20 PM79 °FScattered clouds.3 mph58%29.95 "HgN/A
12:50 PM79 °FScattered clouds.6 mph58%29.95 "HgN/A
12:20 PM77 °FScattered clouds.3 mph61%29.95 "HgN/A
11:50 AM77 °FPassing clouds.5 mph61%29.95 "HgN/A
11:20 AM77 °FScattered clouds.5 mph65%29.95 "HgN/A
10:50 AM77 °FScattered clouds.5 mph65%29.95 "HgN/A
10:20 AM75 °FSunny.5 mph65%29.95 "Hg10 mi
9:50 AM73 °FPassing clouds.5 mph74%29.95 "HgN/A
9:20 AM72 °FPassing clouds.5 mph78%29.95 "HgN/A
8:50 AM70 °FPassing clouds.5 mph78%29.95 "HgN/A
8:20 AM70 °FBroken clouds.5 mph78%29.95 "HgN/A
7:50 AM68 °FScattered clouds.3 mph88%29.95 "HgN/A
7:20 AM66 °FBroken clouds.2 mph88%29.95 "HgN/A
6:50 AM66 °FPartly cloudy.1 mph88%29.95 "HgN/A
6:20 AM64 °FClear.2 mph94%29.95 "Hg10 mi
5:50 AM64 °FClear.3 mph94%29.95 "Hg10 mi
5:20 AM63 °FClear.5 mph94%29.95 "Hg10 mi
4:50 AM63 °FClear.3 mph100%29.95 "Hg10 mi
4:20 AM64 °FPassing clouds.7 mph94%29.95 "HgN/A
Weather by CustomWeather, © 2016

See weather overviewHow to use our weather pages